Theta_e
300 300 301 301 300 301 300 300 300 301 300 301 301 300 300 301 301 302 303 306 307 308 309 310 312 309 308 308 308 308 308 310 312 311 310 308 307 307 307 307 307 307 308 308 309 310 310 310 310 310 309 309 307 306 306 307 307 307 307 307 306 305 303 302 300 292 296 298 299 299 296 298 296 298 298 298 298 298 299 300 300 301 302 302 304
300 300 300 301 300 300 300 299 300 300 300 300 300 300 300 300 301 300 301 302 307 308 308 310 313 312 309 308 308 309 309 310 310 310 309 309 308 308 307 308 307 305 307 308 309 310 309 309 309 308 309 308 305 304 303 304 306 306 306 306 306 305 304 302 298 290 294 291 293 297 295 298 296 298 298 298 297 297 298 299 298 299 300 300 301
300 300 300 300 299 299 299 299 299 299 299 299 299 299 299 299 299 300 300 303 307 308 308 309 311 313 311 307 307 308 309 308 308 309 309 309 308 307 307 308 307 307 306 307 308 308 309 308 308 307 307 306 304 303 302 302 304 305 306 306 306 306 303 304 299 290 292 291 292 294 294 295 297 295 298 299 296 294 294 295 296 295 294 295 296
300 300 299 299 299 298 298 298 298 298 298 298 298 298 298 299 299 300 301 304 307 307 308 309 309 311 311 309 309 309 309 308 308 309 309 309 308 307 307 307 308 308 307 307 307 307 307 307 306 306 306 305 303 302 302 301 301 302 303 303 305 304 303 302 304 295 289 292 289 293 292 292 290 289 292 291 292 291 292 292 292 291 291 291 291
299 299 299 298 298 298 297 297 297 297 297 297 297 298 298 298 298 299 302 306 307 307 307 308 308 308 311 311 311 310 310 309 309 308 309 309 308 308 307 307 307 307 307 307 303 307 306 307 306 305 305 304 302 301 301 301 300 301 301 300 301 301 299 300 298 295 293 292 288 287 287 287 287 287 290 291 288 288 289 290 290 290 289 290 289
298 298 298 297 297 297 297 296 296 297 297 297 298 298 298 297 297 297 302 306 307 307 307 307 308 308 309 310 310 310 309 309 309 308 307 308 308 308 307 307 307 307 307 306 306 307 307 307 306 305 305 304 302 302 301 301 300 300 300 299 299 299 296 294 294 292 293 291 289 286 286 287 287 285 287 288 290 289 287 288 289 288 289 290 291
297 298 297 297 297 296 297 297 297 297 297 297 298 298 297 296 296 298 301 302 305 305 305 306 306 308 308 308 309 309 309 308 308 308 308 307 307 307 306 306 305 305 306 305 306 306 306 307 306 305 305 306 303 302 301 300 300 300 300 300 298 296 294 293 292 293 292 289 287 288 287 286 286 286 286 287 287 288 289 287 288 288 288 289 291
296 296 296 296 296 296 297 296 296 297 297 297 298 297 296 296 296 295 299 304 304 304 304 305 305 306 308 307 308 308 308 307 308 308 308 307 306 306 306 305 304 304 304 305 305 305 305 305 306 306 306 305 304 303 302 300 300 299 299 299 297 296 295 293 293 293 292 290 288 286 285 285 285 284 285 286 286 286 288 289 289 289 288 287 288
294 294 294 295 296 296 296 295 296 296 296 296 296 296 296 295 294 294 293 297 303 304 304 304 304 304 303 305 306 306 307 307 307 307 307 307 307 306 306 305 304 304 304 303 304 304 304 305 305 305 303 299 297 298 298 298 301 299 298 299 297 296 293 293 293 293 292 291 288 287 286 285 285 285 284 285 286 289 288 287 288 288 287 287 287
293 293 293 294 294 295 295 295 295 295 296 295 295 294 293 293 294 292 292 294 299 300 301 301 300 300 301 301 303 305 305 306 301 300 301 306 306 306 306 305 305 304 303 302 302 303 304 304 303 297 295 295 295 296 296 296 297 300 300 299 297 296 294 293 293 293 293 292 291 288 287 286 285 286 286 286 286 286 286 287 287 286 286 286 287
292 292 293 292 293 293 294 294 293 293 295 294 292 292 292 291 291 291 290 291 293 294 299 298 298 298 298 299 300 302 303 303 297 299 301 301 305 306 305 304 304 304 303 303 302 301 302 303 303 297 295 293 295 294 296 296 296 296 296 296 296 298 295 293 292 292 292 293 291 289 289 289 287 287 287 287 286 287 287 287 287 286 286 286 286
291 291 291 290 291 292 292 292 293 292 292 292 292 291 290 289 290 290 289 289 288 290 293 295 294 295 297 296 297 298 298 297 298 299 299 300 300 304 305 304 304 303 303 302 302 300 300 301 300 301 300 300 300 297 295 294 295 295 295 295 295 295 296 297 294 292 292 292 290 290 290 291 290 287 287 286 286 286 286 286 287 287 286 286 287
290 290 289 290 291 292 291 292 292 292 292 291 291 290 290 290 290 291 290 288 287 291 293 293 292 292 293 293 293 294 294 295 297 298 298 299 300 301 305 304 303 302 302 301 299 298 296 297 298 300 300 293 295 298 298 295 293 293 294 293 294 295 296 296 296 297 296 294 293 291 291 292 290 288 288 288 288 286 285 286 286 287 287 287 288
289 289 289 290 290 291 291 291 291 291 291 290 290 290 290 290 291 291 291 290 291 291 291 291 290 291 292 291 291 291 291 292 296 297 297 298 299 301 303 303 302 301 299 299 299 297 296 297 297 297 294 294 294 296 296 295 295 295 294 294 295 293 293 294 294 293 294 296 294 293 292 293 292 292 290 289 287 287 286 286 286 286 286 287 287
289 289 289 289 290 290 291 291 291 290 290 291 290 289 289 288 289 291 291 291 291 291 291 292 292 291 291 290 290 290 293 292 295 295 296 297 298 299 300 299 298 297 298 296 296 296 296 297 296 296 294 294 294 295 295 295 294 295 293 293 293 293 293 293 293 293 293 295 294 295 294 293 294 292 290 289 289 290 289 288 288 287 286 285 284
289 288 288 289 290 290 290 290 290 289 290 290 290 289 289 288 289 289 290 290 290 290 290 290 291 292 291 291 290 290 291 292 293 294 295 297 297 297 297 295 295 293 292 291 292 293 294 294 294 293 292 293 291 293 294 294 294 293 292 291 290 290 292 292 293 294 294 295 295 296 296 294 294 293 290 289 289 288 287 286 287 286 285 284 284
288 288 289 289 290 290 290 290 289 289 290 290 290 290 289 288 287 288 289 290 290 290 290 291 291 292 291 291 291 290 289 290 292 293 294 296 295 294 293 292 292 291 290 290 291 291 293 293 293 293 292 291 291 294 294 293 293 292 291 291 290 290 291 290 292 293 293 293 294 294 295 295 295 294 293 292 290 289 287 286 285 286 285 284 283
288 288 289 289 290 290 290 290 289 289 289 290 290 290 289 289 288 289 289 288 289 290 290 290 291 291 291 291 291 291 289 289 291 293 294 294 293 293 292 292 290 290 289 290 291 291 291 289 290 292 292 291 292 293 294 292 292 291 291 290 289 289 289 289 291 292 291 292 292 292 293 293 293 294 293 292 291 289 288 287 287 286 285 285 284
288 288 289 289 289 289 289 289 289 289 289 290 290 289 289 290 289 288 288 288 289 290 290 290 290 290 290 291 289 291 290 289 290 292 293 293 293 293 292 291 290 289 290 289 289 290 290 289 289 290 291 291 293 293 293 291 291 291 291 290 289 289 290 290 291 290 290 289 289 289 289 289 289 290 290 291 290 288 290 289 287 286 286 285 284
289 289 289 289 288 288 289 289 289 289 289 289 289 289 289 288 288 288 287 288 289 290 290 290 290 290 289 290 290 291 290 289 289 292 292 293 293 292 292 291 290 289 289 290 289 289 289 290 290 291 292 292 293 293 293 292 291 290 290 290 290 289 290 290 289 290 288 289 288 289 289 288 287 287 288 288 288 287 288 288 287 287 287 286 285
288 288 288 288 287 287 288 289 289 289 289 289 289 288 288 288 287 287 287 287 288 288 289 289 289 289 289 289 289 290 291 289 289 291 292 293 292 292 291 291 291 290 290 289 290 289 289 289 289 291 292 292 292 292 292 292 290 289 289 289 288 289 289 289 287 287 287 286 286 287 287 287 287 287 287 287 287 287 287 287 287 288 288 287 285
287 288 288 288 287 287 288 289 289 289 288 288 288 288 287 288 288 287 287 287 286 287 288 288 289 288 288 289 289 289 289 288 289 289 291 292 292 292 291 290 290 290 289 289 289 289 289 289 289 289 291 291 291 292 292 292 291 288 288 290 292 292 289 287 287 288 288 286 286 286 286 286 286 286 286 286 286 286 286 287 286 287 288 288 287
287 288 288 288 287 288 288 288 289 289 288 288 288 288 287 287 286 287 287 286 286 286 287 288 288 288 288 288 289 289 289 289 288 289 290 291 292 292 291 290 291 290 289 288 289 289 289 289 289 288 290 290 290 291 292 292 290 289 291 292 291 291 289 287 287 288 288 288 287 287 286 286 286 285 286 286 286 286 286 286 286 286 286 283 282
287 287 287 286 286 287 288 288 289 288 288 288 288 287 287 287 286 286 286 286 286 286 287 287 287 287 287 287 288 288 289 289 288 288 289 291 292 292 292 291 291 289 289 289 288 289 289 289 288 288 289 289 290 290 290 289 288 290 291 291 290 289 288 288 288 288 287 287 287 286 286 286 286 286 286 286 286 285 285 285 285 284 284 281 280
287 287 286 286 286 286 287 287 287 287 287 288 287 287 286 286 286 285 286 286 286 286 286 286 287 287 287 287 287 288 288 288 288 288 287 288 291 292 291 291 291 290 289 288 288 288 288 289 289 289 289 289 289 290 289 289 289 289 290 289 287 288 288 288 288 287 287 286 286 286 286 286 286 286 285 285 285 285 284 283 283 282 280 279 278
286 286 286 285 285 285 286 286 286 287 287 287 288 287 287 286 286 285 285 286 286 286 286 286 286 286 286 287 287 287 288 288 288 288 287 287 288 290 291 290 289 289 288 288 288 288 289 289 288 288 287 288 287 286 286 286 288 287 288 287 288 288 287 287 287 287 286 286 286 286 286 285 285 284 284 283 283 283 283 282 279 278 279 279 278
286 286 286 285 284 285 286 286 285 285 286 286 286 286 286 286 286 286 285 285 285 286 286 285 286 286 286 286 286 287 287 287 288 288 288 288 288 288 289 289 288 287 288 288 287 288 288 288 287 287 286 286 285 285 284 285 286 287 287 287 287 288 288 288 287 287 287 287 286 286 286 285 284 283 282 283 283 283 283 282 281 279 279 279 278
285 285 285 284 285 285 286 286 286 285 285 286 285 285 285 286 286 286 285 285 285 285 285 285 285 286 286 286 286 286 286 287 287 287 288 288 288 288 288 288 288 288 288 288 288 288 288 287 286 285 285 285 285 285 286 286 286 286 287 287 287 287 287 287 287 287 287 287 287 286 285 285 284 283 282 282 283 282 282 282 280 279 279 279 277
285 283 283 284 284 285 285 285 285 285 285 285 286 286 286 286 286 286 287 287 287 286 285 285 286 286 286 286 286 286 286 286 287 288 288 288 288 288 288 288 288 288 287 288 287 287 287 286 286 286 286 286 285 285 286 286 286 286 286 286 287 287 287 287 287 287 287 287 286 286 285 284 284 283 283 282 282 281 282 281 280 279 278 279 278
284 284 283 284 284 284 284 284 284 285 285 285 284 283 286 285 286 286 286 285 286 288 288 286 286 287 286 287 287 287 286 287 288 288 288 288 289 289 288 288 289 288 288 289 287 287 287 286 286 286 285 285 285 285 285 285 285 285 286 286 286 286 287 287 287 287 287 287 287 286 285 284 284 283 282 282 281 281 281 281 279 279 277 277 277
283 283 284 284 284 284 284 284 284 284 284 284 284 284 283 282 287 287 286 285 285 287 288 288 288 287 287 286 287 289 287 288 288 288 288 288 289 289 289 289 289 288 289 287 287 286 286 285 285 285 285 286 285 285 286 285 285 285 285 286 286 286 286 287 287 287 287 287 287 286 286 285 284 282 282 281 280 279 280 280 279 278 278 277 277
283 283 284 284 285 285 284 284 284 284 284 284 284 284 283 283 283 285 285 284 286 288 288 288 288 288 288 287 286 286 287 288 288 288 288 288 288 288 288 289 289 289 289 289 286 286 286 285 285 285 285 285 285 286 286 286 286 286 285 285 285 286 286 286 287 287 287 286 286 286 285 284 283 282 282 281 279 278 278 278 277 277 277 277 277
283 283 284 284 284 285 284 284 284 284 284 284 284 284 284 283 282 282 284 285 286 287 288 288 288 288 288 287 287 287 287 287 288 288 287 288 288 288 288 289 289 289 289 287 286 286 285 285 285 285 285 285 285 286 286 286 286 286 286 285 285 285 286 286 287 287 287 287 286 286 285 284 282 282 281 280 279 277 277 277 277 277 277 276 276
281 283 284 284 284 284 284 285 285 285 285 285 285 284 284 284 284 284 283 283 285 285 286 287 287 287 287 287 287 287 287 287 287 287 287 287 288 288 288 288 289 289 288 286 286 285 286 285 285 285 286 286 286 286 286 286 286 286 286 286 285 284 285 286 286 286 286 286 286 286 284 284 282 281 281 280 279 278 277 277 277 276 275 276 275
279 282 284 284 284 284 284 284 285 285 285 285 285 284 284 284 284 284 284 283 283 283 284 285 285 285 285 286 287 287 287 287 287 287 287 287 287 288 288 287 286 287 287 287 286 286 285 285 286 286 286 286 286 286 286 286 286 286 285 285 284 284 284 285 286 286 286 286 286 285 284 283 282 282 281 279 278 277 276 276 276 276 276 276 276
278 278 279 281 283 283 284 284 285 285 285 285 286 285 285 284 284 284 284 284 284 283 283 285 285 285 285 285 285 286 286 286 286 286 287 287 287 288 286 285 285 286 286 286 286 286 286 286 286 286 286 286 286 286 286 286 286 286 286 285 285 284 284 285 285 285 285 285 285 284 283 283 282 282 282 280 279 278 277 276 276 276 276 276 276
278 278 278 278 279 282 283 284 285 285 285 285 285 285 285 285 284 283 283 283 283 283 283 284 284 284 285 285 285 285 286 286 286 286 286 287 287 287 286 286 285 285 285 285 285 285 285 286 286 286 286 286 286 286 286 286 286 286 286 286 285 285 284 284 285 284 284 284 284 283 283 283 282 282 281 280 278 278 277 277 276 276 276 276 276
277 277 278 277 279 280 281 282 283 284 285 285 285 285 284 284 284 284 283 283 283 282 282 282 283 282 282 283 285 285 285 285 285 284 284 285 286 286 285 285 285 285 285 285 285 285 285 286 286 286 286 286 286 286 286 286 286 286 286 285 285 285 284 284 284 284 284 284 284 283 282 282 282 281 281 280 278 277 277 276 276 276 276 276 276
276 281 283 283 283 281 282 282 283 283 283 284 284 284 284 284 283 283 283 283 283 282 282 282 282 282 282 284 284 285 285 284 283 282 283 284 285 285 285 285 285 285 285 285 285 285 285 286 286 286 286 286 286 286 286 286 286 285 285 285 285 284 284 283 283 283 283 283 283 283 282 282 282 281 281 280 278 278 277 276 276 276 275 275 276
278 277 280 283 282 282 282 282 283 283 283 283 283 284 284 284 283 283 283 283 282 282 282 281 281 282 283 284 284 284 283 283 283 283 283 284 284 284 285 285 285 285 285 285 285 285 285 286 286 286 286 286 286 286 286 286 286 286 285 285 284 283 283 283 282 282 282 283 283 282 282 282 281 281 281 280 279 278 277 276 276 276 276 276 276
281 278 280 282 282 280 280 281 281 282 282 283 283 283 283 283 283 283 283 283 283 282 282 281 282 283 284 284 284 285 284 284 284 284 284 284 284 284 284 284 285 285 285 285 285 286 286 286 286 286 286 286 286 286 285 285 285 285 285 284 284 283 283 283 282 282 282 282 282 282 282 282 281 280 280 280 280 279 278 277 277 276 276 276 276
281 278 278 279 279 279 279 280 280 282 281 282 282 282 283 283 283 283 283 283 283 282 282 282 282 283 284 284 284 285 284 284 284 284 284 284 284 284 284 284 284 285 285 285 285 285 285 285 285 286 286 286 285 285 286 285 285 285 285 284 284 284 283 282 282 282 282 282 282 282 281 281 280 280 280 280 279 279 278 277 277 276 276 276 276
281 280 278 279 278 278 278 279 279 279 280 280 281 281 282 283 282 283 283 283 283 283 282 282 282 283 284 284 284 285 285 284 283 284 284 285 285 285 285 285 285 285 285 285 285 285 285 285 285 286 286 286 286 286 286 285 285 285 285 284 284 284 283 282 282 281 282 282 281 281 280 281 280 280 280 279 279 278 278 277 277 276 276 276 276
280 279 279 279 278 278 278 278 279 279 279 280 281 282 282 282 282 282 282 282 282 283 283 283 283 283 284 284 285 285 284 284 284 284 284 285 285 285 285 285 285 285 285 285 285 286 286 285 285 286 286 286 286 286 286 286 286 285 285 285 284 284 284 282 282 282 282 281 281 281 280 280 280 280 279 279 279 278 277 277 277 276 276 276 276
280 280 279 278 278 277 277 279 281 281 282 282 281 281 282 282 282 282 282 283 283 283 283 284 284 283 283 284 284 284 284 284 284 284 284 284 284 285 285 285 285 285 285 285 286 286 286 286 286 285 285 285 286 286 286 286 286 286 286 285 285 284 284 283 283 283 283 282 281 281 280 280 279 279 279 279 279 278 277 277 277 275 275 275 275
281 281 280 279 278 278 278 278 281 282 282 282 282 282 283 282 282 282 283 283 284 284 283 284 284 284 283 283 284 283 284 284 284 284 284 284 284 285 285 285 285 285 285 286 286 285 285 285 285 285 285 285 285 286 286 286 286 286 286 286 286 285 285 285 285 284 283 282 281 281 280 280 280 280 279 279 279 278 278 278 277 276 276 275 275
281 282 281 280 279 280 279 280 280 281 282 282 282 282 282 282 283 283 283 283 283 284 283 284 284 283 283 283 283 283 284 284 284 284 284 284 284 284 284 285 285 285 285 285 285 285 285 285 285 285 285 285 285 285 285 286 286 286 286 286 286 286 285 285 285 285 283 283 283 282 281 280 280 279 279 279 278 278 278 277 277 276 276 276 275
277 279 281 281 281 280 280 280 281 281 282 282 282 282 282 282 283 283 283 283 283 283 283 283 283 283 283 283 284 284 284 284 284 284 284 284 284 284 284 284 285 285 285 285 285 285 285 285 285 285 285 285 285 285 285 285 285 285 285 285 285 286 285 284 285 285 284 284 283 282 281 280 280 280 279 279 278 278 277 277 277 277 276 276 276
272 274 274 275 276 278 280 281 281 281 282 282 282 282 282 282 282 282 282 282 282 282 283 283 283 283 283 283 284 284 284 284 284 284 284 284 284 284 285 285 285 285 285 284 285 285 285 285 285 285 285 285 285 285 285 285 285 285 285 285 285 283 283 283 284 285 283 284 283 282 282 281 280 280 279 279 279 278 278 277 277 277 276 276 276
268 268 270 271 272 272 273 274 274 275 275 275 274 274 274 274 274 274 274 274 274 274 275 276 276 277 278 277 278 277 276 276 275 275 276 278 280 283 284 285 285 284 285 284 285 285 285 285 285 285 285 285 285 285 285 285 285 285 285 285 283 282 282 282 283 283 283 284 283 282 282 281 280 280 280 279 279 278 278 277 277 277 276 276 275
265 265 266 266 267 269 269 269 269 269 269 269 269 268 268 267 267 268 268 268 268 269 271 272 273 273 273 273 273 273 272 272 272 272 272 273 273 274 275 276 278 281 282 283 284 284 284 284 284 284 284 284 284 284 285 285 285 285 284 284 282 282 282 282 283 282 282 282 283 282 282 281 280 280 279 279 279 278 278 277 277 277 276 276 275
Wind_Speed
9 8 8 8 9 9 8 7 7 6 6 6 6 6 5 5 5 5 4 5 5 4 6 8 8 5 4 5 4 5 4 5 6 8 8 6 5 5 5 6 7 7 8 8 7 9 10 12 11 10 10 9 7 6 7 8 9 9 10 9 9 7 9 8 8 4 2 2 6 8 8 9 9 11 11 9 8 9 10 9 7 7 7 7 8
10 9 8 8 9 8 8 7 7 6 6 6 6 6 5 5 5 4 5 4 4 4 6 6 6 5 4 4 5 5 5 6 7 8 9 10 10 8 8 9 6 4 6 10 10 9 8 10 10 10 10 10 9 7 6 8 9 9 9 10 10 9 8 9 6 5 6 1 6 5 6 10 9 9 13 13 12 10 12 10 7 7 7 6 6
9 8 9 9 9 8 8 7 7 7 7 6 6 6 5 5 4 5 4 3 3 5 4 5 5 5 5 4 4 5 6 5 5 7 8 10 10 8 9 11 10 8 7 7 9 9 10 9 10 10 10 11 9 7 6 7 8 10 10 9 10 10 8 8 6 4 8 6 4 8 8 8 11 10 12 10 6 5 7 9 9 6 4 4 5
9 9 9 9 9 9 8 8 8 7 8 7 7 6 5 5 4 4 4 3 3 3 4 4 4 5 5 5 5 4 4 5 5 6 8 9 10 10 9 10 10 10 11 9 8 7 9 10 9 10 11 11 9 8 6 6 7 8 8 8 9 9 7 8 7 6 3 9 3 5 5 8 2 2 5 3 6 6 6 3 1 3 4 4 4
9 9 9 10 9 9 9 9 9 8 8 7 7 6 6 5 4 4 4 4 3 3 3 4 4 3 6 7 6 6 6 6 6 5 6 7 8 9 9 10 10 10 9 10 10 9 8 9 9 9 10 10 8 8 8 8 6 7 7 6 7 6 5 5 5 6 8 8 5 1 2 3 2 2 3 7 3 3 3 5 5 4 4 4 4
9 9 9 10 9 10 9 9 9 9 9 8 8 7 6 5 5 4 4 4 4 3 4 3 4 4 4 6 7 7 6 6 7 7 6 6 8 9 9 9 9 9 8 8 9 8 9 9 9 10 11 12 11 9 9 9 8 8 8 7 5 5 6 4 5 5 7 7 9 5 1 5 2 2 1 3 7 5 3 2 1 3 5 6 7
9 9 9 9 9 9 9 10 10 9 9 9 7 7 6 6 5 5 4 4 3 3 3 3 3 4 3 4 5 6 6 7 7 7 7 8 9 8 8 7 7 7 7 7 6 6 5 7 9 9 10 10 11 11 10 8 9 8 9 8 6 7 6 6 5 6 7 7 3 3 6 2 3 4 0 2 2 4 7 5 7 6 5 7 10
9 9 9 9 9 10 10 9 9 9 8 7 8 7 6 6 5 5 5 5 3 3 3 3 3 3 4 4 4 5 6 6 6 7 7 7 7 8 9 8 7 7 7 6 6 5 5 5 6 8 9 9 10 9 10 10 7 7 5 7 8 8 8 7 6 7 7 6 5 6 3 4 3 3 2 3 3 3 7 9 12 9 9 5 4
9 9 9 9 10 9 8 7 7 7 8 7 7 7 7 6 5 5 5 5 4 3 3 2 3 2 3 5 4 4 6 7 6 7 7 7 7 8 9 9 9 7 7 7 6 6 5 6 6 6 7 9 11 11 10 10 10 9 7 8 8 9 7 7 7 7 6 6 5 5 6 5 6 6 6 7 12 12 6 6 7 4 3 3 5
9 9 10 10 8 8 9 8 8 8 8 9 8 8 7 7 7 5 5 5 4 3 2 1 2 3 4 4 5 5 5 5 8 13 11 9 8 7 7 9 9 8 7 7 6 7 7 6 6 10 11 12 12 13 13 13 13 11 10 9 10 9 8 8 8 8 8 8 8 8 8 8 9 10 10 9 4 3 6 7 8 2 3 4 3
9 10 10 8 8 8 9 9 9 9 9 8 7 7 7 6 6 6 5 5 5 4 3 2 1 2 4 4 4 5 5 5 10 12 12 12 9 8 8 8 8 8 8 9 9 8 7 7 6 9 10 10 10 14 15 15 14 12 13 14 12 13 10 9 8 8 9 9 7 7 9 9 9 8 8 6 6 7 6 7 6 5 7 7 9
10 10 8 8 8 9 9 9 9 9 9 9 9 8 7 6 6 6 5 4 4 4 4 3 3 2 2 2 4 5 4 6 10 11 12 13 11 8 7 8 8 8 8 9 7 7 7 7 6 7 7 9 8 9 11 14 15 13 13 14 13 14 14 14 11 8 8 8 7 10 9 10 8 7 8 6 8 6 6 7 8 9 7 8 7
10 9 7 8 9 9 8 10 10 9 9 9 8 8 8 7 6 6 7 5 4 5 4 4 3 3 3 3 3 3 3 4 8 11 11 12 13 10 7 7 8 8 8 8 8 7 6 6 6 5 6 10 8 7 8 8 11 13 12 13 14 15 13 12 12 13 11 10 10 8 10 9 7 9 11 10 7 8 7 7 8 9 9 9 11
9 8 7 8 9 9 9 10 10 10 9 9 9 9 9 9 8 7 5 5 5 4 4 4 3 4 4 4 3 1 3 3 7 9 11 12 12 10 6 7 7 7 8 9 8 8 9 8 7 6 5 6 6 7 6 7 7 6 6 6 7 9 11 14 13 12 11 11 10 11 11 8 10 11 9 9 11 11 9 10 7 7 9 10 1
8 8 9 8 8 8 9 10 10 9 9 9 9 9 9 8 8 8 8 8 8 8 8 7 6 4 4 3 3 3 3 3 6 8 9 10 11 8 5 5 5 5 5 6 7 8 8 9 8 8 7 7 7 8 8 7 7 7 6 6 6 5 6 6 7 6 7 7 8 10 10 10 11 7 8 11 13 11 11 9 10 8 2 4 5
10 8 8 8 9 9 10 10 9 9 10 10 10 10 9 10 10 8 7 6 5 4 4 5 6 5 4 4 4 3 2 3 5 7 8 9 10 6 6 6 6 5 4 4 4 5 6 7 7 6 6 6 7 12 9 8 7 7 6 5 4 4 5 6 7 6 7 9 9 9 8 9 10 8 9 10 7 6 7 7 6 5 5 3 5
9 10 9 10 10 10 10 10 10 10 10 11 11 11 11 10 8 8 8 8 8 8 8 7 6 6 5 5 5 4 3 4 5 7 8 10 8 5 5 5 5 5 5 4 5 5 5 5 6 7 6 5 8 11 11 11 7 7 6 6 5 5 5 2 2 6 8 8 6 5 3 5 8 8 11 13 9 8 7 6 5 6 6 6 3
10 10 11 11 11 11 11 11 10 10 10 12 13 11 9 7 10 10 11 10 9 9 8 7 6 7 7 6 6 6 4 4 7 8 9 9 8 7 6 6 4 5 5 4 5 5 5 10 8 7 7 7 10 12 13 11 8 7 7 7 6 5 4 2 3 2 3 4 3 3 3 5 9 11 13 13 14 12 9 9 7 7 6 6 6
10 11 12 11 11 11 10 9 10 10 11 11 11 11 12 12 9 8 8 8 8 7 7 7 6 6 6 6 7 7 5 5 7 8 10 9 8 6 7 7 7 5 6 5 4 5 6 7 9 8 8 10 13 12 12 9 8 8 8 8 6 6 5 6 5 4 4 3 2 3 2 4 5 6 8 15 17 13 9 6 8 8 7 6 5
11 11 10 10 9 9 9 10 10 11 11 10 8 9 8 8 10 10 8 8 8 8 7 7 8 6 6 6 6 6 6 5 6 9 9 10 9 7 6 8 8 8 6 7 7 4 5 6 7 10 12 13 12 12 11 10 8 6 7 6 7 6 4 6 5 6 5 6 5 5 5 4 3 4 4 7 9 9 8 7 8 8 7 7 8
9 8 8 8 7 8 8 10 12 11 10 11 9 7 8 9 9 10 9 8 8 8 9 7 7 6 6 6 6 6 7 6 7 10 10 10 11 9 6 6 7 8 7 6 6 7 6 5 5 8 11 11 11 11 11 9 8 7 6 6 5 4 6 5 5 7 5 4 4 3 3 3 4 4 5 6 7 6 5 5 8 8 9 8 7
8 8 8 8 7 8 10 10 11 11 9 8 8 9 8 8 9 9 8 9 10 9 8 7 7 7 6 7 7 7 7 10 8 10 11 10 10 10 6 6 6 8 7 6 6 6 7 7 6 7 8 8 8 9 9 8 8 5 4 6 7 8 4 4 4 4 4 4 4 4 4 4 4 4 5 6 7 8 8 8 8 8 7 7 9
8 9 9 8 8 9 10 12 11 8 9 10 11 10 9 10 9 9 10 9 9 10 9 8 8 7 6 6 6 7 7 8 12 10 11 11 10 9 8 6 9 7 7 7 7 6 6 6 6 9 9 8 6 7 6 6 6 4 7 9 9 9 6 4 3 4 4 4 5 5 5 5 5 5 6 6 7 8 8 7 6 5 3 3 4
9 9 8 8 7 7 9 10 10 9 11 10 10 11 11 10 10 10 10 10 9 9 8 8 8 8 8 7 6 7 7 7 9 12 11 14 13 12 11 11 10 6 5 5 5 6 6 5 7 12 12 12 11 12 12 9 6 9 10 9 8 8 5 4 4 4 4 5 5 5 6 5 5 6 8 7 6 6 5 5 5 5 5 4 4
8 8 8 6 6 6 6 8 8 8 9 11 11 11 11 11 11 9 10 9 9 10 9 9 9 9 8 8 7 7 7 7 7 10 13 13 15 15 15 14 12 11 7 5 6 5 7 10 12 14 13 13 13 13 11 11 12 11 11 11 9 4 4 4 4 5 5 6 6 6 6 7 7 5 4 5 5 5 5 4 5 5 6 6 5
6 7 6 6 6 6 7 7 8 9 9 9 11 12 14 13 12 11 10 10 10 10 10 9 9 9 9 8 8 8 7 6 7 7 9 10 11 14 15 15 13 11 8 6 9 11 12 12 13 13 12 11 9 6 6 6 10 10 8 8 4 4 4 5 5 6 6 6 6 7 7 5 4 5 5 6 6 7 6 6 8 6 6 6 5
7 6 7 6 5 7 9 8 7 7 8 7 7 8 9 10 11 12 12 12 11 10 10 10 10 9 9 9 8 8 8 8 7 7 8 8 7 8 10 11 13 12 8 6 9 9 11 11 8 8 7 9 8 6 5 5 4 3 3 4 5 5 6 6 6 7 6 6 6 5 4 5 4 5 5 6 5 4 5 5 6 6 5 5 5
8 7 7 6 7 8 8 10 11 8 8 9 9 8 8 10 11 13 14 14 13 12 12 11 12 12 11 9 9 8 8 8 9 10 10 10 8 8 8 8 9 8 8 7 7 7 7 7 8 6 6 5 4 3 3 3 3 4 5 5 5 5 7 8 7 5 5 5 4 4 4 5 6 5 5 5 5 5 5 6 7 6 6 6 5
6 6 6 6 7 7 7 8 8 9 8 8 8 10 13 12 12 10 9 11 14 16 15 13 11 10 10 11 12 10 8 11 14 11 9 11 12 11 11 10 8 8 8 10 7 7 6 6 6 6 5 5 4 4 4 5 5 5 6 6 5 5 5 6 6 7 6 6 7 7 7 6 6 6 6 5 5 6 5 5 5 7 5 6 7
6 6 6 7 7 7 7 7 7 8 9 9 8 4 2 5 5 8 9 8 9 8 10 11 13 11 11 9 11 14 15 12 11 16 16 16 14 13 10 10 11 9 12 16 10 7 8 7 6 6 7 6 7 7 6 6 6 6 6 6 6 6 6 6 6 6 6 7 6 6 7 7 6 6 6 6 5 5 6 7 6 7 7 7 6
6 6 6 6 7 8 7 8 8 8 8 8 7 7 6 3 3 7 5 7 8 11 12 10 14 13 12 11 9 10 6 10 17 17 18 17 16 16 15 14 14 14 17 13 10 9 8 8 7 7 7 7 7 7 7 7 7 7 7 6 6 7 7 7 7 5 6 6 6 6 6 7 6 7 7 6 6 6 5 4 5 6 7 7 6
6 6 6 5 7 7 7 7 7 7 7 7 8 8 8 7 4 5 8 8 8 10 12 14 15 16 15 12 11 8 12 15 17 18 18 18 17 16 16 16 16 17 18 15 8 8 8 8 8 8 7 8 8 7 7 8 8 8 7 7 7 7 8 8 7 7 6 6 6 6 6 7 7 7 7 7 6 6 6 6 6 7 6 5 5
4 4 5 6 6 7 6 7 7 8 9 9 9 9 10 9 11 9 5 6 9 9 11 14 15 15 15 15 15 12 12 15 19 18 19 18 18 17 16 17 17 18 18 12 9 8 8 8 8 8 8 8 8 8 8 8 8 8 8 8 8 7 7 7 6 7 6 7 6 6 6 7 7 7 7 7 7 7 7 7 6 5 6 6 5
3 3 4 6 7 6 7 7 8 8 8 9 9 10 9 9 10 12 13 10 7 6 7 10 12 13 14 15 14 15 16 17 18 18 18 18 17 17 16 14 17 19 16 10 9 9 8 8 8 8 8 8 8 8 8 8 8 7 7 7 7 7 7 6 7 7 6 7 7 6 7 7 7 8 7 6 6 6 7 6 6 7 6 6 7
2 3 3 5 6 6 6 7 7 7 7 8 9 10 9 9 9 11 15 15 14 13 11 7 7 10 10 10 13 14 15 16 17 17 18 18 18 19 17 12 14 13 12 9 9 9 9 9 9 8 8 9 8 8 8 8 8 8 7 7 6 6 6 7 7 6 6 6 6 6 7 8 8 8 8 8 7 7 7 6 6 7 7 7 7
2 3 2 2 5 5 6 7 7 8 8 8 8 8 9 10 10 8 8 7 8 9 8 7 6 6 10 8 10 13 13 14 14 16 16 18 18 21 14 11 10 11 11 10 9 8 8 8 8 7 7 7 7 7 7 7 7 7 7 7 7 7 7 7 7 7 7 6 6 7 7 7 8 8 7 7 9 9 8 8 7 7 7 7 7
3 2 1 2 3 5 5 6 6 7 7 7 7 8 8 8 9 9 9 8 8 7 8 9 8 7 6 4 5 8 11 11 12 13 14 16 18 14 8 9 10 10 10 9 8 8 8 8 7 7 7 8 7 7 7 7 7 7 6 7 6 7 7 7 7 6 7 7 6 7 8 7 8 8 8 7 7 7 7 7 7 7 7 7 7
3 3 3 3 3 4 4 5 6 7 7 7 7 8 8 9 10 11 11 10 10 10 10 10 8 11 13 10 8 6 9 10 11 9 11 13 12 9 8 7 8 9 9 8 8 7 7 6 7 7 7 7 8 7 7 7 7 7 7 7 7 7 9 9 9 9 8 7 7 7 7 7 7 8 7 7 8 7 7 7 7 7 6 7 7
4 4 4 5 5 4 5 5 6 6 6 7 7 8 9 9 9 9 9 9 10 10 9 9 11 11 10 9 10 8 10 10 10 11 9 8 9 8 8 8 8 8 8 8 8 8 7 7 6 6 6 7 7 7 8 7 7 7 7 7 7 7 9 7 8 7 7 7 7 7 7 7 7 7 7 7 7 7 7 8 8 7 8 7 8
6 3 2 4 4 4 5 6 6 7 7 7 7 7 8 8 9 9 10 10 11 10 10 11 10 9 9 11 11 11 11 12 10 9 8 8 9 9 9 9 8 8 8 8 8 8 8 7 7 7 7 7 7 7 7 8 7 7 7 8 8 8 8 8 8 7 7 7 7 7 7 7 7 7 7 7 8 8 8 8 8 8 8 8 7
8 4 3 3 5 3 4 5 6 6 6 7 7 7 7 7 7 8 8 8 9 9 9 9 8 8 10 12 15 14 11 11 10 10 10 10 9 9 9 8 7 7 7 7 7 7 7 7 7 7 7 7 7 7 7 7 7 7 7 7 7 8 7 7 7 7 7 7 7 7 7 7 7 8 8 8 7 8 7 7 7 7 7 6 6
8 5 1 2 3 2 4 5 6 6 6 6 7 7 7 7 7 7 8 8 8 9 8 8 8 9 12 18 17 16 10 7 8 8 8 8 8 8 7 7 6 6 6 6 6 7 6 7 6 6 6 7 7 6 6 7 7 7 7 7 8 7 7 7 7 8 8 7 7 8 7 7 8 8 8 7 7 7 7 7 8 8 7 7 6
8 6 3 4 3 4 4 5 4 5 5 6 6 5 7 7 7 7 8 8 8 9 9 9 8 9 11 16 16 15 7 7 7 8 7 8 7 7 7 7 7 6 6 6 5 6 6 6 6 6 6 6 7 7 7 7 7 7 7 7 7 7 7 7 7 7 7 7 7 8 8 7 8 7 7 7 7 7 7 8 8 8 8 8 7
8 6 4 3 4 2 4 6 5 5 5 6 6 7 7 7 6 6 7 7 8 8 8 8 9 9 9 11 12 9 7 7 8 8 8 7 7 7 7 6 6 6 6 6 6 6 6 6 6 6 6 7 7 7 7 7 7 7 7 7 7 8 7 8 8 8 8 8 7 8 8 8 8 7 7 7 7 8 8 8 8 8 8 8 8
7 6 3 3 3 3 3 5 6 6 6 6 6 6 7 7 7 7 7 7 8 7 7 8 8 8 9 9 8 7 6 6 7 7 7 7 6 6 6 6 6 6 6 6 6 7 7 7 7 7 7 6 7 6 6 6 6 6 6 7 7 7 7 8 9 8 8 8 7 7 7 8 8 7 7 8 8 8 8 8 8 8 8 8 9
6 5 4 4 4 5 5 5 5 6 6 6 7 6 6 6 6 7 7 7 7 8 8 8 8 8 8 7 7 7 6 6 6 6 6 6 6 6 6 6 6 6 5 6 5 6 6 6 6 6 7 6 7 7 6 6 5 5 6 6 6 6 7 7 7 7 7 8 7 7 7 7 7 7 8 8 7 8 8 8 7 8 8 9 9
7 4 3 4 4 6 6 6 5 5 5 6 6 6 6 6 6 6 6 7 7 7 7 8 8 8 7 7 7 7 7 6 6 6 6 6 6 6 6 6 5 5 5 5 5 6 5 6 5 6 6 6 6 7 6 6 6 6 5 5 5 6 6 6 6 7 8 8 8 7 7 7 7 7 8 8 7 8 8 8 8 9 8 8 8
7 5 1 2 4 5 5 5 6 6 6 6 6 6 6 7 6 6 6 7 7 7 7 7 7 7 7 7 7 6 6 6 6 6 6 6 6 6 6 6 6 5 5 5 5 5 5 5 5 5 5 6 6 6 6 6 6 5 5 5 5 6 7 7 6 7 7 7 7 8 8 8 7 7 7 8 8 7 8 7 7 7 8 8 7
7 7 6 6 5 4 4 5 6 6 7 7 7 7 6 6 6 6 6 6 6 5 5 6 7 7 7 6 6 6 6 6 6 5 5 5 5 5 5 5 5 5 5 5 4 4 4 4 4 4 4 5 5 5 5 5 5 5 6 5 6 9 10 9 7 7 9 8 7 7 7 7 8 8 8 8 8 7 7 7 7 8 7 7 8
8 7 7 8 8 7 7 7 8 7 7 8 8 8 8 8 8 8 8 8 8 8 7 7 7 7 7 8 8 7 8 7 7 7 7 6 5 3 3 5 5 5 5 4 4 3 3 3 3 3 3 3 4 4 4 4 4 5 5 6 8 10 9 11 10 10 9 7 8 7 8 8 7 7 7 8 7 8 7 7 8 7 7 8 8
10 9 10 8 8 8 8 9 9 9 8 9 9 10 10 9 8 8 8 8 7 7 8 8 8 9 8 7 7 7 7 7 7 6 6 6 5 6 8 8 8 8 7 6 5 4 3 3 2 3 2 3 3 2 1 1 3 5 5 6 7 8 9 10 7 9 12 9 7 7 7 8 8 7 7 7 7 7 7 8 7 7 7 8 8
Wind_Direction
164 167 158 158 151 161 164 164 172 172 174 182 189 197 198 195 202 207 211 222 178 192 242 254 252 220 205 203 187 180 183 176 168 151 153 151 164 166 159 175 192 192 176 180 188 189 176 166 166 157 139 137 141 141 161 160 156 166 171 176 180 173 171 184 188 124 165 147 148 179 164 159 186 198 198 199 197 208 213 220 210 212 215 218 217
168 164 161 158 160 161 166 166 169 171 174 184 188 194 197 201 203 208 216 220 177 202 242 257 245 206 191 195 189 182 181 183 170 169 172 168 171 172 169 173 176 192 195 183 183 187 181 168 165 152 144 134 129 137 141 149 155 159 173 175 184 182 177 172 167 133 168 116 146 148 157 176 188 195 199 196 203 194 207 213 213 213 215 211 218
166 159 159 160 165 163 160 166 165 172 177 185 190 195 200 203 194 202 210 224 189 190 238 255 247 201 185 187 198 189 178 182 186 175 175 169 169 173 173 174 174 170 186 193 184 176 175 168 160 149 139 133 137 133 132 140 153 163 171 172 180 184 177 175 144 149 152 184 165 163 175 182 196 194 206 209 197 180 203 213 212 217 229 218 228
163 160 160 161 161 159 164 165 165 173 179 183 189 198 199 197 200 195 194 220 219 190 220 246 255 213 182 178 185 188 180 178 185 183 177 176 173 174 174 178 178 175 176 179 180 175 172 160 159 149 141 138 137 134 137 136 143 155 157 162 164 169 166 164 169 130 151 149 225 175 174 170 208 81 165 131 154 175 200 212 220 232 243 252 237
161 163 160 159 162 163 164 164 169 177 181 182 190 193 193 190 194 188 182 212 236 198 211 233 242 230 190 185 185 184 185 180 181 190 189 183 178 172 176 180 180 178 178 176 175 177 166 157 153 148 143 139 143 146 153 156 155 146 155 148 145 138 126 130 125 119 137 154 135 20 47 64 59 60 128 158 120 133 149 199 208 213 233 247 255
164 161 161 160 166 166 166 165 173 178 181 184 188 190 187 181 183 184 177 198 227 206 193 203 212 222 210 193 189 187 177 177 181 184 183 180 180 180 178 180 181 180 178 175 176 181 171 156 154 155 156 158 165 162 161 162 156 161 161 155 142 130 132 121 117 115 128 143 152 131 72 143 102 61 285 161 161 165 186 206 185 206 214 233 234
164 164 164 164 165 170 169 175 175 178 183 184 182 184 183 178 172 181 184 202 204 222 201 195 207 197 210 196 191 186 177 176 179 180 179 181 183 177 168 171 173 173 176 178 177 173 174 166 159 163 167 169 164 168 168 160 164 170 167 156 142 144 151 149 136 133 134 127 97 131 135 74 131 160 339 120 143 183 184 188 236 219 219 214 234
165 168 165 167 169 174 178 176 177 180 179 177 178 181 176 174 174 174 168 190 193 208 228 194 194 183 187 190 198 187 180 179 176 179 182 178 173 173 165 162 165 165 163 162 167 162 158 169 173 174 176 171 168 165 160 165 162 159 158 147 151 153 163 150 147 149 145 148 150 152 140 141 105 70 90 120 149 254 216 199 217 208 218 216 240
169 170 169 173 179 175 173 174 173 171 174 173 172 175 177 173 166 166 168 177 171 193 219 192 160 161 163 174 178 183 183 182 174 172 172 176 173 169 167 160 162 161 158 157 158 158 162 174 181 176 175 169 158 159 168 160 159 163 166 156 158 162 155 157 159 154 151 149 120 116 134 151 185 159 166 186 200 207 176 183 229 216 167 186 242
170 174 178 183 173 170 170 169 170 169 171 173 176 173 170 169 167 167 171 175 174 154 153 140 163 170 166 164 173 181 190 185 177 173 172 171 173 169 166 164 161 162 158 156 159 165 171 176 182 170 161 163 160 161 163 166 174 174 166 165 163 162 165 161 166 171 165 168 179 160 164 191 189 195 192 209 177 96 150 181 211 171 103 217 279
179 181 189 178 172 165 166 171 165 171 176 169 166 166 169 168 169 171 170 174 171 147 134 137 168 181 179 171 174 187 192 189 179 177 174 171 169 169 166 169 165 162 165 166 172 175 176 175 172 167 162 164 169 168 169 174 179 176 165 174 171 167 163 168 181 173 172 188 173 165 192 199 205 192 207 180 178 189 175 180 179 153 195 192 227
186 193 186 169 172 172 170 167 169 174 168 171 169 170 162 162 170 175 174 175 165 140 149 167 169 176 169 178 185 184 189 187 182 181 176 172 170 170 169 169 172 171 171 176 176 176 178 177 174 168 174 176 172 173 172 177 179 177 169 175 177 181 175 172 172 172 181 175 169 196 187 208 197 171 198 173 190 176 185 172 185 191 189 206 219
192 193 181 176 180 178 170 173 175 174 178 170 166 161 166 168 173 176 191 186 156 161 179 160 181 181 155 175 195 187 183 188 187 185 181 176 171 165 171 172 173 177 176 174 170 174 173 170 173 177 185 171 162 168 169 178 184 178 173 176 182 184 189 192 181 179 177 178 184 189 198 197 178 204 197 191 156 175 169 183 198 198 202 209 222
188 191 182 186 184 179 178 175 181 183 173 168 165 167 171 182 183 185 172 167 178 175 177 185 174 173 164 171 180 202 194 208 190 189 187 183 177 169 167 174 179 176 177 175 172 173 174 173 174 179 168 166 170 166 169 165 162 163 169 176 185 198 196 194 194 188 173 181 180 194 212 183 198 211 192 153 162 187 179 205 190 190 203 215 286
188 188 188 192 182 179 181 182 183 178 174 169 168 174 178 173 176 181 181 184 185 188 185 191 188 175 165 154 156 180 232 225 187 182 184 183 179 164 152 157 162 168 174 177 175 176 174 174 175 172 167 171 177 169 162 165 160 166 169 182 189 181 189 198 196 187 182 189 190 202 201 198 210 199 159 177 190 191 185 192 185 186 138 69 61
193 184 187 185 187 188 183 185 180 174 171 171 172 177 178 180 179 175 175 181 181 170 185 187 187 178 163 155 154 178 190 213 179 172 165 161 147 136 140 144 141 133 129 138 144 153 159 160 159 156 159 161 171 167 161 150 157 162 170 170 171 176 203 213 199 191 190 193 197 200 202 199 201 185 172 181 176 114 100 87 102 113 130 116 193
190 187 189 188 190 189 188 185 181 174 172 171 178 181 179 180 175 165 171 178 177 186 188 184 185 181 172 170 168 169 176 198 174 161 154 143 130 123 126 120 129 131 132 133 135 138 146 146 147 146 145 146 153 149 145 142 147 155 157 162 168 174 218 224 182 202 210 209 213 222 192 179 194 180 173 175 158 140 116 119 159 150 147 188 182
191 189 193 191 191 192 191 183 177 173 172 180 186 187 179 168 173 172 174 173 183 187 177 175 179 187 188 185 174 167 178 187 176 162 152 148 142 140 137 129 120 121 113 112 122 126 134 141 142 145 145 147 150 142 146 141 145 150 150 150 160 184 210 130 127 175 182 183 193 190 163 173 186 179 174 166 147 154 156 188 179 150 179 182 191
189 193 199 195 194 188 180 175 175 177 183 190 185 178 180 180 168 162 169 168 174 166 170 175 177 180 189 189 176 171 166 183 183 171 159 147 138 135 136 134 131 130 127 113 99 107 115 126 136 140 141 150 149 146 148 145 146 155 157 155 169 194 192 151 154 137 127 132 153 142 153 163 169 169 178 172 166 172 186 166 129 167 181 185 150
200 197 196 195 191 177 173 174 177 180 189 189 187 186 166 149 162 167 163 160 160 165 168 174 178 183 173 174 183 183 169 172 187 181 172 156 148 141 145 140 145 145 140 141 127 115 115 112 118 128 138 145 149 152 153 148 147 150 150 162 174 199 162 157 167 154 157 166 173 176 177 153 135 140 147 161 170 180 179 151 165 171 184 175 176
197 199 196 193 183 175 173 176 180 189 188 188 176 160 163 166 159 159 157 154 152 160 169 172 172 174 172 177 172 180 176 172 185 188 184 168 155 151 159 154 150 151 151 148 152 148 150 143 133 125 128 138 145 149 155 153 143 150 160 174 171 143 143 146 172 156 155 163 155 140 128 123 132 139 154 163 172 180 178 172 178 185 179 179 177
188 193 197 197 183 175 177 182 182 184 181 158 156 168 169 159 161 157 151 153 157 162 163 167 170 168 171 175 180 184 174 172 174 191 187 179 165 159 155 166 158 152 151 158 157 162 160 161 160 158 143 135 131 138 149 157 146 133 153 145 144 163 157 166 154 168 166 153 138 138 135 138 139 153 161 171 178 183 187 186 189 193 193 187 183
179 191 195 195 191 183 181 179 182 177 174 172 166 167 161 155 157 156 154 154 154 157 165 166 165 166 168 179 180 182 179 178 176 184 193 188 184 164 159 155 161 158 164 173 177 167 157 153 152 158 166 171 168 164 167 167 161 164 158 159 163 171 172 167 154 155 159 148 147 152 157 150 153 169 169 182 193 191 189 186 181 173 154 81 61
184 193 200 202 191 186 183 183 182 178 173 168 166 158 161 160 158 162 159 156 155 156 165 168 168 173 178 182 182 184 181 176 182 180 185 188 193 186 170 170 169 179 175 180 163 159 158 152 155 166 176 179 182 193 196 195 189 187 184 183 176 179 172 165 155 162 153 155 159 159 169 180 175 180 197 192 179 174 172 167 155 139 129 104 91
186 199 207 204 192 187 178 181 183 176 174 166 164 164 160 158 157 164 157 158 159 161 168 173 178 177 176 183 187 184 181 180 179 184 181 186 188 187 177 168 168 161 167 167 160 159 154 154 163 175 177 176 180 184 191 192 188 189 186 184 182 178 171 159 165 161 169 172 175 176 184 194 195 174 137 141 142 130 134 123 123 115 107 107 95
201 210 213 204 196 171 173 184 181 178 173 177 175 172 168 169 163 163 162 164 165 165 167 173 177 176 182 183 185 187 181 180 183 182 183 186 189 190 185 175 172 170 159 159 160 154 155 164 166 165 167 170 168 167 172 182 188 184 181 180 177 178 170 172 175 176 179 179 182 191 195 170 169 161 153 143 152 172 157 150 120 111 133 128 111
214 217 213 210 186 171 176 177 177 176 176 173 170 167 168 167 162 163 166 165 168 169 168 173 175 178 183 185 180 176 185 189 190 186 185 186 186 184 185 179 173 172 168 165 163 165 171 175 167 162 158 159 154 154 150 149 149 167 182 183 182 183 180 181 181 182 182 183 191 193 167 160 127 121 149 158 160 149 154 148 146 143 141 137 135
208 211 208 196 188 182 180 176 169 171 175 168 164 168 176 173 170 174 173 173 168 173 171 177 182 182 183 175 172 172 185 192 194 194 188 188 188 186 186 175 174 176 168 164 163 162 165 164 151 144 132 117 120 115 128 132 158 171 181 184 187 185 184 185 180 181 184 180 166 151 145 147 164 161 143 161 163 151 153 157 160 155 158 144 144
209 208 197 185 187 180 174 172 174 170 172 179 185 182 177 180 183 187 196 182 177 171 176 184 184 182 170 169 169 181 186 200 206 185 180 180 181 180 182 178 168 167 159 148 144 147 151 153 150 152 152 154 159 164 169 171 181 178 178 183 184 181 178 176 183 189 185 169 180 182 174 164 164 158 156 158 169 162 161 158 160 155 158 168 177
204 206 186 184 178 172 170 169 169 169 170 172 164 153 156 176 187 181 182 185 183 181 171 177 179 168 169 180 178 177 192 198 157 168 175 177 181 180 170 159 160 152 152 155 152 157 167 167 170 168 165 169 178 183 182 181 181 181 186 183 181 182 180 184 190 191 180 188 184 178 173 170 165 161 165 168 154 163 176 171 167 164 162 177 174
204 196 179 187 177 174 171 171 176 168 168 162 157 151 126 71 105 141 143 159 162 159 162 151 156 167 166 166 180 185 153 149 167 173 172 176 176 171 164 159 156 155 157 155 161 169 172 175 176 176 175 179 187 189 185 186 189 184 186 181 182 185 187 190 194 182 183 186 185 180 168 173 166 161 168 172 163 165 171 171 155 171 179 172 173
209 197 183 177 173 177 174 169 165 161 160 156 154 152 146 135 79 117 140 150 158 159 158 159 163 164 165 160 158 170 168 168 172 175 175 175 173 166 160 158 161 164 165 161 167 179 178 178 181 185 182 187 192 189 190 193 192 189 182 184 188 186 187 196 190 184 185 184 185 179 170 170 162 166 168 166 161 165 170 170 173 178 175 166 166
217 191 178 172 170 173 167 168 168 167 164 163 161 159 158 155 148 133 103 111 130 149 160 161 164 166 160 158 162 164 167 172 174 174 174 174 171 166 161 163 166 168 164 173 184 181 182 183 187 185 188 192 190 193 195 195 194 189 188 188 188 188 192 191 173 182 185 184 181 181 166 163 158 164 169 161 164 171 175 179 179 177 168 160 158
234 205 182 174 168 174 172 172 173 177 177 173 168 165 166 161 157 150 142 142 116 87 100 138 150 150 149 151 152 155 162 168 171 172 171 173 171 168 166 171 173 176 179 185 182 187 183 186 189 188 189 192 194 194 195 194 192 190 188 189 186 184 182 167 171 182 178 177 181 175 165 164 161 164 169 167 172 166 175 181 172 169 176 176 167
286 284 225 177 172 175 169 169 173 173 177 177 170 168 166 165 161 164 164 158 159 160 160 145 136 131 135 140 144 146 152 158 164 167 168 167 165 166 165 170 181 187 188 193 190 187 186 187 189 189 188 191 194 192 193 188 187 189 188 183 176 171 167 172 174 173 174 173 177 173 173 169 169 170 168 168 165 172 182 179 182 184 176 172 169
284 269 267 196 176 172 170 172 172 176 178 182 177 172 167 162 165 164 163 163 156 143 129 142 137 132 118 115 138 148 151 155 159 163 165 165 164 164 169 179 182 186 187 185 187 187 184 186 185 188 185 190 187 189 187 185 187 185 184 179 173 166 165 167 168 170 171 172 177 173 173 174 171 173 174 172 175 179 179 183 182 184 181 176 175
274 274 236 195 181 173 176 175 178 177 174 170 170 170 170 163 160 160 161 163 160 158 150 146 134 126 114 140 142 155 159 159 160 161 165 167 170 173 182 177 180 175 182 182 181 184 187 189 184 182 180 182 184 182 178 184 186 187 184 180 172 166 170 166 167 168 171 179 179 175 177 175 172 172 171 173 177 180 178 177 179 179 184 179 166
280 259 229 198 183 178 169 175 176 171 170 169 170 168 167 166 166 167 166 165 164 159 157 161 166 165 164 164 169 162 164 161 155 157 167 170 173 182 181 181 178 182 181 182 182 182 186 182 180 182 179 174 177 175 176 183 183 185 184 180 175 174 167 168 173 175 179 179 177 175 174 174 172 172 173 174 175 178 178 177 173 176 181 180 177
287 292 271 191 187 181 181 168 169 163 166 165 166 165 165 161 158 161 162 161 158 159 160 161 167 169 167 159 165 163 158 164 169 174 165 172 176 178 180 180 181 182 181 182 181 185 185 185 180 174 174 173 173 174 177 181 179 184 182 178 174 169 170 173 175 178 178 179 175 172 173 174 173 171 172 170 173 182 180 173 175 176 176 182 192
296 266 238 206 196 193 175 175 168 164 167 163 168 163 160 161 161 159 158 157 158 159 162 167 169 170 166 165 167 171 167 171 173 176 174 173 179 182 185 184 184 181 178 178 181 185 185 183 177 175 174 174 172 174 176 178 182 183 181 181 176 174 175 173 177 177 180 176 172 171 174 176 173 171 172 174 179 180 175 176 180 180 183 186 189
307 278 208 207 202 191 170 165 170 171 167 162 162 163 165 158 153 152 151 150 149 151 156 159 157 156 163 166 171 175 173 176 173 176 179 179 178 182 185 187 183 181 178 174 172 174 177 176 177 178 175 173 173 172 175 178 180 181 182 180 178 178 177 176 176 180 177 174 172 171 175 175 174 174 180 186 178 175 179 174 173 177 180 182 179
306 307 205 210 200 175 172 173 170 163 158 156 156 158 154 152 149 148 149 148 144 143 143 143 146 150 158 163 169 171 171 174 173 172 174 180 180 183 183 182 180 179 176 172 164 161 166 168 171 172 175 171 169 175 173 181 181 182 180 179 181 181 179 178 178 180 178 176 173 175 176 176 176 182 183 178 174 175 173 176 175 174 173 174 177
298 285 235 199 189 179 176 177 154 147 150 150 151 144 144 146 148 147 145 146 145 144 141 140 138 140 154 163 166 169 171 168 172 175 174 177 180 180 181 180 176 171 166 164 162 160 162 167 171 172 176 180 176 176 179 183 185 184 181 181 181 181 178 174 176 176 176 175 175 175 174 177 179 180 176 176 176 175 179 178 177 175 174 171 174
287 283 235 198 192 168 155 151 150 150 145 145 140 139 141 138 140 139 142 142 143 141 139 139 138 141 145 156 161 165 164 161 163 169 169 169 173 174 175 174 170 169 167 165 166 165 167 172 173 174 173 176 181 181 185 186 185 187 185 183 185 186 179 172 175 177 178 178 174 170 173 180 179 176 175 176 178 180 181 180 180 178 174 171 168
278 267 222 191 175 156 156 151 146 143 138 136 135 140 142 141 142 141 139 141 137 137 133 135 136 139 144 151 156 155 151 146 151 150 158 158 158 157 157 161 163 166 165 169 167 168 172 173 171 170 173 174 176 181 186 188 186 190 191 188 190 189 183 176 182 182 177 171 168 169 175 177 179 179 179 180 183 182 183 185 182 175 175 175 169
273 259 201 179 175 161 145 144 145 145 145 144 144 140 138 130 134 135 138 135 136 135 135 133 137 140 145 147 150 147 148 145 145 143 140 142 144 147 149 153 155 159 163 167 167 166 168 166 168 169 171 172 177 181 182 182 186 192 191 193 187 184 181 178 171 165 170 168 167 173 177 179 183 182 181 180 183 184 187 184 181 181 182 180 179
293 234 203 179 166 157 145 140 137 141 137 136 135 133 130 126 124 124 125 129 130 130 131 134 135 140 142 149 151 152 152 146 147 145 147 148 148 148 148 150 147 151 154 159 161 163 165 165 169 169 169 167 169 176 180 184 184 187 186 186 184 172 169 170 166 168 170 170 170 168 174 179 181 182 184 182 182 187 185 185 184 183 184 180 179
338 348 11 137 141 134 132 129 133 134 130 129 123 121 120 118 119 120 121 124 122 125 124 126 128 131 136 141 142 144 144 146 146 147 149 150 151 148 146 146 151 154 156 156 164 164 166 169 170 168 169 170 167 169 172 172 174 179 184 183 179 177 171 168 172 165 161 165 170 171 172 178 178 182 183 185 187 186 186 188 184 186 182 179 178
354 3 25 30 38 46 99 124 129 128 133 129 121 115 108 110 105 101 96 94 95 95 107 119 123 123 126 126 129 129 135 138 141 142 148 145 142 141 141 143 147 145 144 149 148 154 162 162 164 166 168 170 174 171 168 171 174 176 177 177 176 177 176 175 169 164 161 165 167 169 172 173 177 180 180 187 189 188 191 186 185 183 182 179 176
5 7 25 32 43 38 48 58 61 67 67 79 84 82 75 75 72 72 73 76 70 65 65 63 65 67 73 72 72 67 62 64 57 55 51 46 45 67 110 137 135 139 138 136 139 145 144 142 149 153 158 159 162 167 166 169 175 175 171 174 176 178 183 183 175 161 161 164 166 171 171 175 176 176 177 183 187 186 188 189 186 183 181 178 180
18 21 35 23 30 39 45 59 61 62 65 74 75 84 82 73 65 65 69 62 52 52 57 56 61 63 61 54 54 56 55 49 41 38 37 33 27 41 47 46 46 48 50 49 49 48 53 57 59 54 47 45 42 43 46 103 160 163 164 176 183 188 188 183 181 172 166 163 168 166 169 173 172 173 172 173 179 184 189 187 186 183 181 180 179